Weather History for New Haven, CT

Change the Weather History Date:

Tuesday, January 8, 2013

  Actual Average Record
Temperature  
Mean Temperature 34 °F -  
Max Temperature 46 °F 36 °F 57 °F (1998)
Min Temperature 21 °F 24 °F 9 °F (2014)
Degree Days  
Heating Degree Days 32    
Moisture  
Dew Point 28 °F    
Average Humidity 74    
Maximum Humidity 89    
Minimum Humidity 56    
Precipitation  
Precipitation 0.00 in - - ()
Sea Level Pressure  
Sea Level Pressure 30.37 in    
Wind  
Wind Speed 2 mph (SW)    
Max Wind Speed 14 mph    
Max Gust Speed 22 mph    
Visibility 9 miles    
Events      
Averages and records for this station are not official NWS values.
T = Trace of Precipitation, MM = Missing Value Source: NWS Daily Summary

Daily Weather History Graph

Daily Weather History Graph

Search for Another Location

Airport:

Trip Planner

Search our weather history database for the weather conditions in past years. The results will help you decide how hot, cold, wet, or windy it might be!

Date:

Astronomy

Jan. 08, 2013 Rise Set
Actual Time 7:17 AM EST 4:40 PM EST
Civil Twilight 6:46 AM EST 5:10 PM EST
Nautical Twilight 6:11 AM EST 5:45 PM EST
Astronomical Twilight 5:38 AM EST 6:18 PM EST
Moon 3:46 AM EST (1/8) 1:39 PM EST (1/8)
Length of Visible Light 10h 24m
Length of Day
9h 23m
Waning Crescent, 14% of the Moon is Illuminated
Jan 8
Waning Crescent
Jan 11
New
Jan 18
First Quarter
Jan 26
Full
Feb 3
Last Quarter

Hourly Weather History & Observations

Time (EST) Temp. Windchill Dew Point Humidity Pressure Visibility Wind Dir Wind Speed Gust Speed Precip Events Conditions
12:53 AM 23.0 °F - 19.0 °F 85% 30.38 in 9.0 mi Calm Calm - N/A   Clear
1:53 AM 24.1 °F - 19.0 °F 81% 30.38 in 10.0 mi Calm Calm - N/A   Clear
2:53 AM 23.0 °F - 19.0 °F 85% 30.37 in 10.0 mi Calm Calm - N/A   Clear
3:53 AM 21.9 °F - 18.0 °F 85% 30.35 in 9.0 mi Calm Calm - N/A   Clear
4:53 AM 23.0 °F - 18.0 °F 81% 30.36 in 9.0 mi Calm Calm - N/A   Clear
5:53 AM 33.1 °F 30.0 °F 26.1 °F 75% 30.38 in 10.0 mi WSW 3.5 mph - N/A   Clear
6:53 AM 33.1 °F - 27.0 °F 78% 30.39 in 10.0 mi Calm Calm - N/A   Clear
7:53 AM 34.0 °F 31.0 °F 28.9 °F 82% 30.41 in 9.0 mi WSW 3.5 mph - N/A   Clear
8:53 AM 36.0 °F - 28.9 °F 76% 30.42 in 9.0 mi Calm Calm - N/A   Clear
9:53 AM 37.9 °F - 28.9 °F 70% 30.43 in 8.0 mi Calm Calm - N/A   Clear
10:53 AM 42.1 °F 39.2 °F 32.0 °F 67% 30.40 in 9.0 mi SW 4.6 mph - N/A   Partly Cloudy
11:53 AM 43.0 °F 38.8 °F 32.0 °F 65% 30.37 in 10.0 mi SW 6.9 mph - N/A   Scattered Clouds
12:53 PM 45.0 °F 38.5 °F 30.9 °F 58% 30.34 in 10.0 mi WSW 13.8 mph 20.7 mph N/A   Mostly Cloudy
1:53 PM 46.0 °F 41.0 °F 32.0 °F 58% 30.33 in 10.0 mi SW 10.4 mph 18.4 mph N/A   Mostly Cloudy
2:53 PM 46.9 °F - 32.0 °F 56% 30.33 in 10.0 mi WSW 11.5 mph 21.9 mph N/A   Mostly Cloudy
3:53 PM 46.0 °F 41.4 °F 32.0 °F 58% 30.33 in 10.0 mi WSW 9.2 mph 20.7 mph N/A   Mostly Cloudy
4:53 PM 45.0 °F 42.6 °F 32.0 °F 60% 30.34 in 10.0 mi WSW 4.6 mph - N/A   Mostly Cloudy
5:53 PM 45.0 °F - 32.0 °F 60% 30.35 in 10.0 mi Calm Calm - N/A   Clear
6:53 PM 43.0 °F 39.5 °F 32.0 °F 65% 30.36 in 10.0 mi South 5.8 mph - N/A   Clear
7:53 PM 42.1 °F - 34.0 °F 73% 30.37 in 9.0 mi Calm Calm - N/A   Clear
8:53 PM 35.1 °F - 30.0 °F 82% 30.38 in 8.0 mi Calm Calm - N/A   Clear
9:53 PM 33.1 °F - 30.0 °F 89% 30.37 in 6.0 mi Calm Calm - N/A   Clear
10:53 PM 30.9 °F - 28.0 °F 89% 30.38 in 5.0 mi Calm Calm - N/A   Clear
11:36 PM 30.2 °F - 26.6 °F 86% 30.38 in 2.0 mi Calm Calm - N/A   Clear
11:53 PM 30.0 °F - 27.0 °F 88% 30.38 in 2.0 mi Calm Calm - N/A   Clear